Location: Drocourt
(49.0571°N, 1.7669°E)
Time: 20:31:11
(UTC+00:00)

S-56A Canister/Altair - Pass Details

Date: 13 April 2024
Orbit: 638 x 2488 km, 38.9° (Epoch: 20 May)

Event Time Altitude Azimuth Distance (km) Brightness Sun altitude
Rises 22:46:34 0° 269° (W) 4,589 11.7 -29.6°
Reaches altitude 10° 22:49:27 10° 263° (W) 3,843 11.2 -29.8°
Enters shadow 22:58:35 42° 203° (SSW) 2,677 9.8 -30.2°
Maximum altitude 22:59:06 42° 197° (SSW) 2,696 - -30.2°
Drops below altitude 10° 23:11:53 10° 134° (SE) 5,049 - -30.7°
Sets 23:16:20 0° 128° (SE) 6,137 - -30.9°
